Weather History for Orr, MN

Change the Weather History Date:

Friday, November 1, 2013

  Actual Average Record
Temperature  
Mean Temperature 35 °F -  
Max Temperature 37 °F 39 °F 60 °F (2001)
Min Temperature 33 °F 25 °F 12 °F (2003)
Degree Days  
Heating Degree Days 30    
Moisture  
Dew Point 32 °F    
Average Humidity 84    
Maximum Humidity 93    
Minimum Humidity 70    
Precipitation  
Precipitation 0.00 in - - ()
Sea Level Pressure  
Sea Level Pressure 29.54 in    
Wind  
Wind Speed 4 mph (NW)    
Max Wind Speed 9 mph    
Max Gust Speed -    
Visibility 9 miles    
Events Snow    
Averages and records for this station are not official NWS values.
T = Trace of Precipitation, MM = Missing Value Source: NWS Daily Summary

Daily Weather History Graph

Daily Weather History Graph

Search for Another Location

Airport:

Trip Planner

Search our weather history database for the weather conditions in past years. The results will help you decide how hot, cold, wet, or windy it might be!

Date:

Astronomy

Nov. 01, 2013 Rise Set
Actual Time 7:56 AM CDT 5:52 PM CDT
Civil Twilight 7:24 AM CDT 6:24 PM CDT
Nautical Twilight 6:47 AM CDT 7:01 PM CDT
Astronomical Twilight 6:11 AM CDT 7:37 PM CDT
Moon 5:41 AM CDT (11/1) 4:51 PM CDT (11/1)
Length of Visible Light 11h 00m
Length of Day
9h 55m
Waning Crescent, 4% of the Moon is Illuminated
Nov 1
Waning Crescent
Nov 3
New
Nov 9
First Quarter
Nov 17
Full
Nov 25
Last Quarter

Hourly Weather History & Observations

Time (CDT) Temp. Windchill Dew Point Humidity Pressure Visibility Wind Dir Wind Speed Gust Speed Precip Events Conditions
12:13 AM 37.4 °F 34.9 °F 35.6 °F 93% 29.35 in 7.0 mi NW 3.5 mph - N/A   Overcast
12:33 AM 37.4 °F 34.9 °F 35.6 °F 93% 29.35 in 7.0 mi NW 3.5 mph - N/A   Overcast
12:53 AM 37.4 °F 34.9 °F 35.6 °F 93% 29.34 in 7.0 mi NW 3.5 mph - N/A Snow Light Snow
1:13 AM 37.4 °F 34.9 °F 35.6 °F 93% 29.35 in 5.0 mi WNW 3.5 mph - N/A   Drizzle
1:33 AM 37.4 °F 34.9 °F 35.6 °F 93% 29.35 in 5.0 mi WNW 3.5 mph - N/A   Overcast
1:53 AM 35.6 °F 32.8 °F 33.8 °F 93% 29.35 in 7.0 mi WNW 3.5 mph - N/A   Overcast
2:13 AM 35.6 °F - 33.8 °F 93% 29.35 in 7.0 mi Calm Calm - N/A   Overcast
2:33 AM 35.6 °F 32.8 °F 33.8 °F 93% 29.35 in 7.0 mi NW 3.5 mph - N/A   Overcast
2:53 AM 35.6 °F - 33.8 °F 93% 29.35 in 7.0 mi Calm Calm - N/A   Overcast
3:13 AM 35.6 °F - 33.8 °F 93% 29.36 in 7.0 mi Calm Calm - N/A   Overcast
3:33 AM 35.6 °F 32.8 °F 33.8 °F 93% 29.36 in 7.0 mi WNW 3.5 mph - N/A   Overcast
3:53 AM 35.6 °F 31.7 °F 33.8 °F 93% 29.37 in 7.0 mi NW 4.6 mph - N/A   Overcast
4:13 AM 35.6 °F 29.9 °F 33.8 °F 93% 29.37 in 7.0 mi WNW 6.9 mph - N/A   Overcast
4:33 AM 35.6 °F 32.8 °F 33.8 °F 93% 29.38 in 7.0 mi NW 3.5 mph - N/A   Overcast
4:53 AM 35.6 °F 31.7 °F 33.8 °F 93% 29.38 in 10.0 mi NW 4.6 mph - N/A   Overcast
5:13 AM 35.6 °F 29.9 °F 33.8 °F 93% 29.38 in 7.0 mi WNW 6.9 mph - N/A   Overcast
5:33 AM 35.6 °F 31.7 °F 33.8 °F 93% 29.39 in 7.0 mi WNW 4.6 mph - N/A   Overcast
5:53 AM 35.6 °F 30.7 °F 33.8 °F 93% 29.39 in 7.0 mi WNW 5.8 mph - N/A   Overcast
6:13 AM 35.6 °F 30.7 °F 33.8 °F 93% 29.40 in 7.0 mi WNW 5.8 mph - N/A   Overcast
6:33 AM 35.6 °F 29.2 °F 33.8 °F 93% 29.41 in 7.0 mi WNW 8.1 mph - N/A   Overcast
6:53 AM 35.6 °F 28.6 °F 33.8 °F 93% 29.42 in 7.0 mi NW 9.2 mph - N/A   Overcast
7:13 AM 35.6 °F 29.2 °F 33.8 °F 93% 29.43 in 10.0 mi NW 8.1 mph - N/A   Overcast
7:33 AM 35.6 °F 29.9 °F 33.8 °F 93% 29.43 in 10.0 mi NW 6.9 mph - N/A   Overcast
7:53 AM 35.6 °F 30.7 °F 33.8 °F 93% 29.44 in 10.0 mi NW 5.8 mph - N/A   Overcast
8:13 AM 35.6 °F 30.7 °F 32.0 °F 87% 29.45 in 10.0 mi NW 5.8 mph - N/A   Overcast
8:33 AM 35.6 °F 31.7 °F 32.0 °F 87% 29.46 in 10.0 mi NW 4.6 mph - N/A   Overcast
8:53 AM 35.6 °F 32.8 °F 32.0 °F 87% 29.47 in 10.0 mi NNW 3.5 mph - N/A   Overcast
9:13 AM 35.6 °F 31.7 °F 32.0 °F 87% 29.48 in 10.0 mi NW 4.6 mph - N/A   Overcast
9:33 AM 35.6 °F 29.9 °F 32.0 °F 87% 29.49 in 10.0 mi NW 6.9 mph - N/A   Overcast
9:53 AM 35.6 °F 29.9 °F 32.0 °F 87% 29.49 in 10.0 mi NW 6.9 mph - N/A   Overcast
10:13 AM 35.6 °F 31.7 °F 32.0 °F 87% 29.50 in 10.0 mi NW 4.6 mph - N/A   Overcast
10:33 AM 35.6 °F 30.7 °F 32.0 °F 87% 29.50 in 10.0 mi NW 5.8 mph - N/A   Overcast
10:53 AM 35.6 °F - 30.2 °F 81% 29.51 in 10.0 mi Calm Calm - N/A   Overcast
11:13 AM 35.6 °F 31.7 °F 30.2 °F 81% 29.52 in 10.0 mi NW 4.6 mph - N/A   Overcast
11:33 AM 35.6 °F 32.8 °F 30.2 °F 81% 29.53 in 10.0 mi NNW 3.5 mph - N/A   Overcast
11:53 AM 35.6 °F 30.7 °F 30.2 °F 81% 29.53 in 10.0 mi NW 5.8 mph - N/A   Overcast
12:13 PM 37.4 °F 33.8 °F 30.2 °F 75% 29.55 in 10.0 mi NW 4.6 mph - N/A   Overcast
12:33 PM 37.4 °F 32.8 °F 30.2 °F 75% 29.55 in 10.0 mi NW 5.8 mph - N/A   Overcast
12:53 PM 37.4 °F 33.8 °F 30.2 °F 75% 29.56 in 10.0 mi NW 4.6 mph - N/A   Overcast
1:13 PM 37.4 °F 33.8 °F 30.2 °F 75% 29.56 in 10.0 mi NNW 4.6 mph - N/A   Overcast
1:33 PM 37.4 °F 32.1 °F 30.2 °F 75% 29.57 in 10.0 mi NW 6.9 mph - N/A   Overcast
1:53 PM 37.4 °F 31.4 °F 30.2 °F 75% 29.58 in 10.0 mi NW 8.1 mph - N/A   Overcast
2:13 PM 37.4 °F 32.1 °F 30.2 °F 75% 29.58 in 10.0 mi NW 6.9 mph - N/A   Overcast
2:34 PM 37.4 °F 34.9 °F 30.2 °F 75% 29.60 in 10.0 mi NW 3.5 mph - N/A   Overcast
2:53 PM 37.4 °F 32.1 °F 28.4 °F 70% 29.60 in 10.0 mi NW 6.9 mph - N/A   Overcast
3:13 PM 37.4 °F 33.8 °F 30.2 °F 75% 29.61 in 10.0 mi NNW 4.6 mph - N/A   Overcast
3:33 PM 37.4 °F 34.9 °F 28.4 °F 70% 29.62 in 10.0 mi NW 3.5 mph - N/A   Overcast
3:53 PM 37.4 °F 32.1 °F 28.4 °F 70% 29.63 in 10.0 mi NW 6.9 mph - N/A   Overcast
4:13 PM 37.4 °F - 28.4 °F 70% 29.63 in 10.0 mi Calm Calm - N/A   Overcast
4:33 PM 37.4 °F 34.9 °F 28.4 °F 70% 29.64 in 10.0 mi NW 3.5 mph - N/A   Overcast
4:53 PM 37.4 °F - 28.4 °F 70% 29.65 in 10.0 mi Calm Calm - N/A   Overcast
5:13 PM 37.4 °F - 28.4 °F 70% 29.66 in 10.0 mi Calm Calm - N/A   Overcast
5:33 PM 37.4 °F - 30.2 °F 75% 29.67 in 10.0 mi Calm Calm - N/A   Overcast
5:53 PM 37.4 °F - 30.2 °F 75% 29.67 in 10.0 mi Calm Calm - N/A   Overcast
6:13 PM 35.6 °F - 30.2 °F 81% 29.68 in 10.0 mi Calm Calm - N/A   Overcast
6:33 PM 35.6 °F - 30.2 °F 81% 29.69 in 10.0 mi Calm Calm - N/A   Overcast
6:53 PM 35.6 °F - 30.2 °F 81% 29.70 in 10.0 mi Calm Calm - N/A   Overcast
7:13 PM 35.6 °F - 30.2 °F 81% 29.71 in 10.0 mi Calm Calm - N/A   Overcast
7:33 PM 35.6 °F - 30.2 °F 81% 29.71 in 10.0 mi Calm Calm - N/A   Overcast
7:53 PM 35.6 °F - 30.2 °F 81% 29.72 in 10.0 mi Calm Calm - N/A   Overcast
8:13 PM 33.8 °F - 30.2 °F 87% 29.72 in 10.0 mi Calm Calm - N/A   Overcast
8:33 PM 35.6 °F - 30.2 °F 81% 29.73 in 10.0 mi Calm Calm - N/A   Overcast
8:53 PM 35.6 °F - 30.2 °F 81% 29.73 in 10.0 mi Calm Calm - N/A   Overcast
9:13 PM 35.6 °F - 30.2 °F 81% 29.74 in 10.0 mi Calm Calm - N/A   Overcast
9:33 PM 35.6 °F - 30.2 °F 81% 29.74 in 7.0 mi Calm Calm - N/A   Overcast
9:53 PM 35.6 °F 29.9 °F 32.0 °F 87% 29.75 in 10.0 mi NW 6.9 mph - N/A   Overcast
10:13 PM 33.8 °F 27.7 °F 30.2 °F 87% 29.76 in 10.0 mi NW 6.9 mph - N/A   Overcast
10:33 PM 33.8 °F 29.6 °F 30.2 °F 87% 29.76 in 10.0 mi NW 4.6 mph - N/A   Overcast
10:53 PM 33.8 °F 28.6 °F 30.2 °F 87% 29.77 in 10.0 mi NW 5.8 mph - N/A   Overcast
11:13 PM 33.8 °F 27.0 °F 28.4 °F 81% 29.77 in 10.0 mi NW 8.1 mph - N/A   Overcast
11:33 PM 33.8 °F 28.6 °F 28.4 °F 81% 29.78 in 10.0 mi WNW 5.8 mph - N/A   Overcast
11:54 PM 33.8 °F 29.6 °F 28.4 °F 81% 29.79 in 7.0 mi NW 4.6 mph - N/A Snow Light Snow